Belleville, IL

10:28 PM CDT on September 18, 2019 (GMT -0500)
Scott Air Force Base-Midamerica

Weather History for KBLV - August, 2019

Change the Weather History Date:

Thursday, August 22, 2019

  Actual Average Record
Temperature  
Mean Temperature 74 °F -  
Max Temperature 79 °F 87 °F 98 °F (1983)
Min Temperature 69 °F 62 °F 50 °F (1950)
Cooling Degree Days 10    
Growing Degree Days 24 (Base 50)    
Moisture  
Dew Point 71 °F    
Average Humidity 93    
Maximum Humidity 100    
Minimum Humidity 74    
Precipitation  
Precipitation 0.29 in - - ()
Sea Level Pressure  
Sea Level Pressure 29.97 in    
Wind  
Wind Speed 2 mph ()    
Max Wind Speed 10 mph    
Max Gust Speed -    
Visibility 9.9 miles    
Events Rain    
Averages and records for this station are not official NWS values.
T = Trace of Precipitation, MM = Missing Value Source: Averaged Metar Reports

Daily Weather History Graph

Daily Weather History Graph

Search for Another Location

Airport or City:

Astronomy

Aug. 22, 2019 Rise Set
Actual Time 6:19 AM CDT 7:44 PM CDT
Civil Twilight 5:51 AM CDT 8:11 PM CDT
Nautical Twilight 5:18 AM CDT 8:45 PM CDT
Astronomical Twilight 4:43 AM CDT 9:20 PM CDT
Moon 11:39 PM CDT (8/22) 12:50 PM CDT (8/22)
Length of Visible Light 14h 20m
Length of Day
13h 24m
Waning Gibbous, 59% of the Moon is Illuminated
Aug 22
Waning Gibbous
Aug 23
Last Quarter
Aug 30
New
Sep 5
First Quarter
Sep 13
Full

Hourly Weather History & Observations

Time (CDT) Temp. Heat Index Dew Point Humidity Pressure Visibility Wind Dir Wind Speed Gust Speed Precip Events Conditions
12:56 AM 72.3 °F - 68.9 °F 89% 29.98 in 10.0 mi West 3.5 mph - 0.02 in Rain Light Rain
1:47 AM 71.6 °F - 69.8 °F 94% 29.96 in 10.0 mi Calm Calm - N/A   Clear
1:56 AM 71.8 °F - 69.6 °F 93% 29.95 in 10.0 mi Calm Calm - 0.01 in   Clear
2:56 AM 71.6 °F - 69.8 °F 94% 29.95 in 10.0 mi North 3.5 mph - N/A   Scattered Clouds
3:56 AM 71.4 °F - 69.8 °F 95% 29.98 in 10.0 mi SSE 3.5 mph - N/A   Overcast
3:58 AM 71.6 °F - 69.8 °F 94% 29.98 in 10.0 mi SE 4.6 mph - N/A   Light Drizzle
4:20 AM 71.6 °F - 69.8 °F 94% 29.98 in 10.0 mi ESE 3.5 mph - N/A   Scattered Clouds
5:56 AM 70.3 °F - 70.0 °F 99% 29.96 in 10.0 mi SSE 4.6 mph - N/A   Clear
6:56 AM 70.7 °F - 70.3 °F 99% 29.96 in 10.0 mi Calm Calm - 0.00 in   Clear
7:56 AM 72.7 °F - 71.4 °F 96% 29.98 in 10.0 mi SSW 3.5 mph - N/A   Clear
8:03 AM 73.4 °F - 71.6 °F 94% 29.98 in 10.0 mi SSW 3.5 mph - N/A   Scattered Clouds
8:56 AM 73.4 °F - 71.2 °F 93% 29.99 in 10.0 mi Calm Calm - N/A   Mostly Cloudy
9:56 AM 75.4 °F - 71.8 °F 89% 29.99 in 10.0 mi SW 3.5 mph - N/A   Mostly Cloudy
10:36 AM 75.2 °F - 71.6 °F 89% 30.01 in 10.0 mi SW 3.5 mph - N/A   Overcast
11:56 AM 74.1 °F - 72.1 °F 94% 30.01 in 8.0 mi Calm Calm - 0.11 in Rain Light Rain
12:05 PM 75.2 °F - 71.6 °F 89% 30.01 in 10.0 mi Calm Calm - N/A   Mostly Cloudy
12:39 PM 75.2 °F - 71.6 °F 89% 30.00 in 10.0 mi SSW 3.5 mph - N/A   Mostly Cloudy
12:49 PM 75.2 °F - 71.6 °F 89% 29.99 in 10.0 mi Calm Calm - N/A   Mostly Cloudy
12:56 PM 75.9 °F - 71.8 °F 87% 29.98 in 10.0 mi Calm Calm - 0.00 in   Mostly Cloudy
1:01 PM 77.0 °F - 71.6 °F 83% 29.98 in 10.0 mi Calm Calm - N/A   Mostly Cloudy
1:56 PM 77.7 °F - 71.4 °F 81% 29.95 in 10.0 mi Calm Calm - N/A   Mostly Cloudy
2:41 PM 78.8 °F - 71.6 °F 78% 29.95 in 10.0 mi Calm Calm - N/A   Mostly Cloudy
3:35 PM 78.8 °F - 69.8 °F 74% 29.94 in 10.0 mi Calm Calm - N/A   Light Drizzle
3:44 PM 80.6 °F 84.6 °F 71.6 °F 74% 29.94 in 10.0 mi Calm Calm - N/A   Partly Cloudy
3:56 PM 79.2 °F - 70.2 °F 74% 29.94 in 10.0 mi Calm Calm - 0.00 in   Scattered Clouds
4:56 PM 78.8 °F - 72.0 °F 79% 29.95 in 10.0 mi NNE 5.8 mph - N/A   Mostly Cloudy
5:42 PM 75.2 °F - 71.6 °F 89% 29.95 in 10.0 mi North 10.4 mph - N/A   Light Drizzle
6:01 PM 73.4 °F - 71.6 °F 94% 29.95 in 10.0 mi North 8.1 mph - N/A Rain Heavy Rain
6:35 PM 73.4 °F - 71.6 °F 94% 29.95 in 5.0 mi Calm Calm - N/A Rain Light Rain
6:37 PM 73.4 °F - 71.6 °F 94% 29.95 in 10.0 mi Calm Calm - N/A Rain Light Rain
6:48 PM 73.4 °F - 71.6 °F 94% 29.95 in 10.0 mi Calm Calm - N/A Rain Light Rain
6:56 PM 72.7 °F - 71.1 °F 95% 29.95 in 10.0 mi NNE 3.5 mph - 0.14 in Rain Light Rain
7:30 PM 73.4 °F - 71.6 °F 94% 29.94 in 10.0 mi Calm Calm - N/A   Clear
7:56 PM 71.6 °F - 71.6 °F 100% 29.95 in 10.0 mi Calm Calm - 0.01 in   Partly Cloudy
8:56 PM 71.6 °F - 71.2 °F 99% 29.97 in 10.0 mi North 3.5 mph - N/A   Mostly Cloudy
9:56 PM 71.2 °F - 70.5 °F 98% 29.98 in 10.0 mi Calm Calm - N/A   Partly Cloudy
10:56 PM 70.7 °F - 70.3 °F 99% 29.98 in 10.0 mi Calm Calm - N/A   Partly Cloudy
11:18 PM 69.8 °F - 69.8 °F 100% 29.99 in 10.0 mi Calm Calm - N/A   Scattered Clouds
11:33 PM 69.8 °F - 69.8 °F 100% 29.99 in 10.0 mi Calm Calm - N/A   Mostly Cloudy
11:35 PM 69.8 °F - 69.8 °F 100% 29.99 in 10.0 mi Calm Calm - N/A   Mostly Cloudy
11:36 PM 69.8 °F - 69.8 °F 100% 29.99 in 10.0 mi Calm Calm - N/A   Mostly Cloudy
11:37 PM 69.8 °F - 69.8 °F 100% 29.99 in 10.0 mi Calm Calm - N/A   Mostly Cloudy
11:38 PM 69.8 °F - 69.8 °F 100% 29.99 in 10.0 mi Calm Calm - N/A   Mostly Cloudy
11:39 PM 69.8 °F - 69.8 °F 100% 29.99 in 10.0 mi Calm Calm - N/A   Mostly Cloudy
11:40 PM 69.8 °F - 69.8 °F 100% 29.99 in 10.0 mi Calm Calm - N/A   Mostly Cloudy
11:42 PM 69.8 °F - 69.8 °F 100% 29.99 in 10.0 mi Calm Calm - N/A   Mostly Cloudy
11:43 PM 69.8 °F - 69.8 °F 100% 29.99 in 10.0 mi Calm Calm - N/A   Mostly Cloudy
11:56 PM 69.8 °F - 69.8 °F 100% 29.99 in 10.0 mi Calm Calm - N/A   Mostly Cloudy